Location: Capelle
(50.3413°N, 1.9974°E)
Time: 00:05:12
(UTC+00:00)

IGS 5A - Pass Details

Date: 12 January 2026
Orbit: 551 x 554 km, 97.4° (Epoch: 8 January)

Event Time Altitude Azimuth Distance (km) Brightness Sun altitude
Rises 16:56:57 0° 174° (S) 2,719 7.1 -6.9°
Reaches altitude 10° 16:59:05 10° 178° (S) 1,829 6.3 -7.2°
Maximum altitude 17:03:00 61° 259° (W) 633 4.0 -7.8°
Drops below altitude 10° 17:06:57 10° 341° (NNW) 1,844 6.0 -8.4°
Sets 17:09:07 0° 344° (NNW) 2,743 6.8 -8.7°
